Location: Newark
(7.0858°N, 171.3717°E)
Time: 03:36:20
(UTC+00:00)

Vanguard 2 - Pass Details

Date: 28 November 2020
Orbit: 553 x 2937 km, 32.9° (Epoch: 26 January)

Event Time Altitude Azimuth Distance (km) Brightness Sun altitude
Rises 17:37:37 0° 223° (SW) 6,523 12.0 -13.0°
Reaches altitude 10° 17:42:39 10° 218° (SW) 5,257 11.6 -11.9°
Maximum altitude 17:56:13 46° 150° (SSE) 2,352 10.4 -8.7°
Drops below altitude 10° 18:04:42 10° 79° (E) 3,368 11.8 -6.8°
Sets 18:07:11 0° 73° (ENE) 4,070 12.2 -6.2°
